Regional Weather Roundup
Issued by NWS Bismarck, ND

Home | Current Version | Previous Version | Text Only | Print | Product List | Glossary On
Versions: 1 2 3 4 5 6 7 8 9 10 11 12 13 14 15 16 17 18 19 20 21 22 23 24 25 26 27 28 29 30 31 32 33 34 35 36 37 38 39 40 41 42 43 44 45 46 47 48 49 50
000
ASUS43 KBIS 221310
RWRBIS

NWR BROADCAST TEXT
NATIONAL WEATHER SERVICE BISMARCK ND
800 AM CDT FRI SEP 22 2017

NOTE: "FAIR" INDICATES FEW OR NO CLOUDS BELOW 12,000 FEET WITH NO
SIGNIFICANT WEATHER AND/OR OBSTRUCTIONS TO VISIBILITY.


CITY           SKY/WX    TMP DP  RH WIND       PRES   REMARKS
WILLISTON      CLOUDY    46  39  76 N8        29.97R
MINOT          MOCLDY    46  40  79 N10       29.91S
MINOT AFB      MOCLDY    46  39  78 N10       29.89F
BISMARCK       CLOUDY    54  43  66 NE18G24   29.79F
DICKINSON      CLOUDY    49  38  65 N20       29.84F
GARRISON         N/A     49  40  71 N14G21    29.88R
HETTINGER ARPT CLOUDY    50  36  58 NE17      29.81R
JAMESTOWN      CLOUDY    58  49  72 NE17G26   29.77R
CARRINGTON     CLOUDY    54  50  87 N12       29.85R
HAZEN          CLOUDY    54  39  58 NE14G21   29.87F
LINTON         CLOUDY    59  46  63 NE20G28   29.74S
RUGBY          FAIR      48  43  81 N12       29.88R
STANLEY        PTSUNNY   45  41  87 NE9       29.96R
TIOGA          CLOUDY    45  41  87 NE6       29.97R
WATFORD CITY   CLOUDY    46  37  71 N10       29.93S
$$

CITY           SKY/WX    TMP DP  RH WIND       PRES   REMARKS
GRAND FORKS    CLOUDY    58  52  80 N18       29.82S
GRAND FORKS AF CLOUDY    56  50  81 NE15G21   29.83S
DEVILS LAKE    PTCLDY    51  45  79 N17G24    29.84F
FARGO          CLOUDY    63  62  97 N12       29.75S
CANDO          FAIR      48  48 100 N13G21    29.90R
CAVALIER       FAIR      52  46  82 N14       29.86R
GRAFTON        PTSUNNY   54  50  87 N15       29.87R
GWINNER        FOG       66  66 100 NE10      29.73R VSB 0
LANGDON        FAIR      48  46  93 N15       29.88S
ROLLA          FAIR      45  41  87 N13       29.91R
WALHALLA       FAIR     N/A N/A N/A N15       29.88S
$$

CITY           SKY/WX    TMP DP  RH WIND       PRES   REMARKS
ABERDEEN       CLEAR     61  61 100 NE6       29.66F
MOBRIDGE       CLOUDY    62  53  72 NE15G22   29.63S
BUFFALO          N/A     52  37  56 N16       29.78R
RAPID CITY     CLOUDY    52  37  58 N23G30    29.77S
GLASGOW        CLOUDY    43  36  76 NW13      30.02R
SIDNEY         CLOUDY    47  37  68 N9        29.97R
WOLF POINT     CLOUDY    46  38  73 CALM      30.00R
GLENDIVE       CLOUDY    46  35  65 N15       29.97R
MILES CITY     CLOUDY    47  34  60 N12G23    29.97R
BAKER          CLOUDY    50  34  54 N15       29.91R
$$

CITY           SKY/WX    TMP DP  RH WIND       PRES   REMARKS
BILLINGS       LGT RAIN  39  39 100 NE15      29.96F
GREAT FALLS    CLOUDY    34  32  92 N8        30.06F
REGINA         CLOUDY    36  36 100 N9        30.00F
ESTEVAN        LGT RAIN  43  41  93 N8        29.96S
$$





USA.gov is the U.S. government's official web portal to all federal, state and local government web resources and services.